• In Moldova, Republic
  • List of Countries
  • For 7 days
  • Water Temperature
  • Satellite Maps
  • Weather Map
  • Weather Widgets
  • user-avatar
    Login

    Hourly Weather Adelaide

    Today, 29 April, Saturday

    Time Temperature Precipitation Wind Pressure Humidity
    00:00 +14°C° 0 mm 1 mps 765 mmHg 87%
    01:00 +14°C° 0 mm 1 mps 765 mmHg 88%
    02:00 +14°C° 0 mm 1 mps 765 mmHg 89%
    03:00 +14°C° 0 mm 1 mps 765 mmHg 90%
    04:00 +14°C° 0 mm 1 mps 765 mmHg 91%
    05:00 +14°C° 0 mm 1 mps 765 mmHg 91%
    06:00 +14°C° 0 mm 1 mps 765 mmHg 91%
    07:00 +15°C° 0 mm 1 mps 765 mmHg 85%
    08:00 +18°C° 0 mm 1 mps 765 mmHg 79%
    09:00 +18°C° 0 mm 2 mps 766 mmHg 72%
    10:00 +19°C° 0 mm 2 mps 765 mmHg 71%
    11:00 +19°C° 0 mm 2 mps 765 mmHg 69%
    12:00 +19°C° 0 mm 2 mps 765 mmHg 67%
    13:00 +19°C° 0.1 mm 2 mps 765 mmHg 68%
    14:00 +20°C° 0.1 mm 1 mps 764 mmHg 68%
    15:00 +20°C° 0.1 mm 1 mps 764 mmHg 69%
    16:00 +19°C° 0 mm 1 mps 764 mmHg 74%
    17:00 +19°C° 0 mm 1 mps 764 mmHg 78%
    18:00 +18°C° 0 mm 1 mps 764 mmHg 83%
    19:00 +16°C° 0 mm 1 mps 764 mmHg 85%
    20:00 +16°C° 0 mm 1 mps 764 mmHg 87%
    21:00 +16°C° 0 mm 1 mps 764 mmHg 89%
    22:00 +15°C° 0 mm 1 mps 764 mmHg 90%
    23:00 +14°C° 0 mm 0 mps 764 mmHg 92%

    Tomorrow, 30 April, Sunday

    Time Temperature Precipitation Wind Pressure Humidity
    00:00 +13°C° 0 mm 0 mps 764 mmHg 93%
    01:00 +14°C° 0 mm 0 mps 763 mmHg 93%
    02:00 +14°C° 0 mm 0 mps 763 mmHg 93%
    03:00 +15°C° 0 mm 1 mps 763 mmHg 93%
    04:00 +15°C° 0 mm 1 mps 763 mmHg 93%
    05:00 +15°C° 0 mm 1 mps 763 mmHg 93%
    06:00 +15°C° 0 mm 1 mps 763 mmHg 92%
    07:00 +16°C° 0 mm 1 mps 763 mmHg 85%
    08:00 +17°C° 0 mm 2 mps 763 mmHg 79%
    09:00 +18°C° 0 mm 2 mps 763 mmHg 72%
    10:00 +19°C° 0 mm 2 mps 762 mmHg 67%
    11:00 +20°C° 0 mm 2 mps 762 mmHg 62%
    12:00 +20°C° 0 mm 2 mps 761 mmHg 57%
    13:00 +21°C° 0 mm 2 mps 761 mmHg 55%
    14:00 +21°C° 0 mm 2 mps 760 mmHg 53%
    15:00 +22°C° 0 mm 1 mps 760 mmHg 51%
    16:00 +20°C° 0 mm 1 mps 760 mmHg 58%
    17:00 +19°C° 0 mm 1 mps 760 mmHg 64%
    18:00 +16°C° 0 mm 1 mps 760 mmHg 71%
    19:00 +16°C° 0 mm 1 mps 760 mmHg 74%
    20:00 +15°C° 0 mm 1 mps 760 mmHg 78%
    21:00 +15°C° 0 mm 1 mps 760 mmHg 81%
    22:00 +15°C° 0 mm 1 mps 760 mmHg 81%
    23:00 +15°C° 0 mm 2 mps 759 mmHg 80%

    Day after tomorrow, 1 May, Monday

    Time Temperature Precipitation Wind Pressure Humidity
    00:00 +15°C° 0 mm 2 mps 759 mmHg 80%
    01:00 +15°C° 0 mm 2 mps 759 mmHg 80%
    02:00 +15°C° 0 mm 2 mps 759 mmHg 79%
    03:00 +14°C° 0 mm 2 mps 759 mmHg 79%
    04:00 +14°C° 0 mm 2 mps 759 mmHg 81%
    05:00 +13°C° 0 mm 3 mps 759 mmHg 82%
    06:00 +13°C° 0 mm 3 mps 759 mmHg 84%
    07:00 +16°C° 0 mm 3 mps 759 mmHg 80%
    08:00 +17°C° 0 mm 3 mps 759 mmHg 76%
    09:00 +18°C° 0 mm 4 mps 759 mmHg 72%
    10:00 +19°C° 0.1 mm 4 mps 759 mmHg 69%
    11:00 +20°C° 0.1 mm 4 mps 759 mmHg 67%
    12:00 +21°C° 0.1 mm 4 mps 759 mmHg 65%
    13:00 +20°C° 0.3 mm 4 mps 759 mmHg 68%
    14:00 +20°C° 0.3 mm 4 mps 758 mmHg 71%
    15:00 +19°C° 0.3 mm 4 mps 758 mmHg 74%
    16:00 +18°C° 0.3 mm 4 mps 759 mmHg 77%
    17:00 +17°C° 0.3 mm 4 mps 759 mmHg 81%
    18:00 +16°C° 0.3 mm 3 mps 760 mmHg 85%
    19:00 +16°C° 0 mm 3 mps 760 mmHg 84%
    20:00 +16°C° 0 mm 3 mps 760 mmHg 83%
    21:00 +14°C° 0 mm 3 mps 761 mmHg 82%
    22:00 +14°C° 0 mm 3 mps 761 mmHg 82%
    23:00 +13°C° 0 mm 3 mps 761 mmHg 83%

    2 May, Tuesday

    Time Temperature Precipitation Wind Pressure Humidity
    00:00 +13°C° 0 mm 3 mps 761 mmHg 83%
    01:00 +13°C° 0 mm 3 mps 761 mmHg 82%
    02:00 +13°C° 0 mm 3 mps 761 mmHg 81%
    03:00 +13°C° 0 mm 3 mps 761 mmHg 80%
    04:00 +12°C° 0.1 mm 3 mps 762 mmHg 81%
    05:00 +12°C° 0.1 mm 3 mps 762 mmHg 82%
    06:00 +12°C° 0.1 mm 3 mps 762 mmHg 84%
    07:00 +13°C° 0.1 mm 3 mps 763 mmHg 78%
    08:00 +14°C° 0.1 mm 3 mps 763 mmHg 73%
    09:00 +16°C° 0.1 mm 3 mps 764 mmHg 68%
    10:00 +16°C° 0 mm 3 mps 764 mmHg 62%
    11:00 +17°C° 0 mm 3 mps 764 mmHg 56%
    12:00 +18°C° 0 mm 3 mps 763 mmHg 49%
    13:00 +18°C° 0 mm 3 mps 763 mmHg 49%
    14:00 +18°C° 0 mm 3 mps 763 mmHg 49%
    15:00 +18°C° 0 mm 4 mps 763 mmHg 49%
    16:00 +17°C° 0 mm 3 mps 764 mmHg 56%
    17:00 +14°C° 0 mm 3 mps 764 mmHg 62%
    18:00 +13°C° 0 mm 3 mps 765 mmHg 69%
    19:00 +13°C° 0.1 mm 3 mps 765 mmHg 73%
    20:00 +13°C° 0.1 mm 3 mps 765 mmHg 77%
    21:00 +12°C° 0.1 mm 3 mps 766 mmHg 81%
    22:00 +12°C° 0 mm 3 mps 766 mmHg 82%
    23:00 +12°C° 0 mm 3 mps 766 mmHg 84%

    3 May, Wednesday

    Time Temperature Precipitation Wind Pressure Humidity
    00:00 +12°C° 0 mm 3 mps 766 mmHg 85%
    01:00 +12°C° 0 mm 3 mps 766 mmHg 85%
    02:00 +11°C° 0 mm 3 mps 766 mmHg 86%
    03:00 +11°C° 0 mm 3 mps 766 mmHg 86%
    04:00 +11°C° 0 mm 3 mps 767 mmHg 86%
    05:00 +10°C° 0 mm 3 mps 767 mmHg 85%
    06:00 +10°C° 0 mm 3 mps 768 mmHg 85%
    07:00 +11°C° 0 mm 3 mps 768 mmHg 77%
    08:00 +12°C° 0 mm 4 mps 769 mmHg 68%
    09:00 +13°C° 0 mm 4 mps 769 mmHg 60%
    10:00 +13°C° 0 mm 4 mps 769 mmHg 55%
    11:00 +14°C° 0 mm 3 mps 768 mmHg 51%
    12:00 +16°C° 0 mm 3 mps 768 mmHg 46%
    13:00 +16°C° 0 mm 3 mps 768 mmHg 46%
    14:00 +16°C° 0 mm 3 mps 768 mmHg 45%
    15:00 +16°C° 0 mm 3 mps 767 mmHg 45%
    16:00 +14°C° 0 mm 3 mps 768 mmHg 51%
    17:00 +13°C° 0 mm 3 mps 768 mmHg 56%
    18:00 +11°C° 0 mm 3 mps 768 mmHg 62%
    19:00 +11°C° 0 mm 3 mps 768 mmHg 64%
    20:00 +11°C° 0 mm 3 mps 768 mmHg 66%
    21:00 +10°C° 0 mm 3 mps 769 mmHg 68%
    22:00 +10°C° 0 mm 3 mps 768 mmHg 70%
    23:00 +10°C° 0 mm 3 mps 768 mmHg 71%

    4 May, Thursday

    Time Temperature Precipitation Wind Pressure Humidity
    00:00 +9°C° 0 mm 3 mps 768 mmHg 73%
    01:00 +9°C° 0 mm 3 mps 768 mmHg 75%
    02:00 +9°C° 0 mm 3 mps 768 mmHg 77%
    03:00 +9°C° 0 mm 3 mps 768 mmHg 78%
    04:00 +8°C° 0 mm 3 mps 768 mmHg 80%
    05:00 +8°C° 0 mm 2 mps 768 mmHg 82%
    06:00 +8°C° 0 mm 2 mps 768 mmHg 83%
    07:00 +10°C° 0 mm 2 mps 768 mmHg 76%
    08:00 +12°C° 0 mm 2 mps 768 mmHg 69%
    09:00 +14°C° 0 mm 2 mps 768 mmHg 62%
    10:00 +15°C° 0 mm 2 mps 768 mmHg 56%
    11:00 +17°C° 0 mm 2 mps 767 mmHg 50%
    12:00 +18°C° 0 mm 2 mps 766 mmHg 44%
    13:00 +19°C° 0 mm 2 mps 766 mmHg 43%
    14:00 +20°C° 0 mm 1 mps 765 mmHg 42%
    15:00 +20°C° 0 mm 1 mps 765 mmHg 41%
    16:00 +18°C° 0 mm 1 mps 765 mmHg 49%
    17:00 +15°C° 0 mm 1 mps 765 mmHg 57%
    18:00 +12°C° 0 mm 1 mps 765 mmHg 66%
    19:00 +12°C° 0 mm 1 mps 765 mmHg 66%
    20:00 +12°C° 0 mm 1 mps 765 mmHg 67%
    21:00 +12°C° 0 mm 2 mps 765 mmHg 67%
    22:00 +12°C° 0 mm 2 mps 765 mmHg 67%
    23:00 +12°C° 0 mm 2 mps 765 mmHg 67%
    Show more